Location: São Paulo
(23.5507°S, 46.6334°W)
Time: 07:45:27
(UTC-03:00)

Transit 2A - Pass Details

Date: 23 February 2026
Orbit: 590 x 954 km, 66.7° (Epoch: 10 March)

Event Time Altitude Azimuth Distance (km) Brightness Sun altitude
Rises 08:28:48 0° 191° (S) 3,068 9.0 33.3°
Reaches altitude 10° 08:31:13 10° 182° (S) 2,200 8.4 33.9°
Maximum altitude 08:35:51 36° 115° (ESE) 1,191 8.5 34.9°
Drops below altitude 10° 08:40:53 10° 49° (NE) 2,406 9.4 36.1°
Sets 08:43:37 0° 40° (NE) 3,393 9.9 36.7°
